Wetbulb
76.51 77.94 77.98 74.10 64.68 63.33 58.12 60.04 64.38 63.29 63.92 67.43 67.69 66.48 65.35 66.62 64.18 60.99 72.89 72.82 74.76 75.29 75.12 77.42 78.17 77.78 77.51 78.11 77.46 77.48 77.51 77.55 77.21 77.48 77.13 76.86 76.45 76.07 76.01 76.04 75.51 76.13 76.71 76.15 76.01 75.96 76.04 76.13 76.01
79.24 76.21 75.04 69.48 61.00 56.75 56.44 62.87 61.16 64.59 67.07 68.30 67.55 66.76 66.10 65.44 70.22 71.06 71.77 73.18 73.64 75.43 75.91 76.35 77.45 77.64 77.83 77.72 77.56 77.55 77.34 77.13 77.02 77.10 76.83 76.67 76.21 76.15 76.07 75.62 75.79 76.12 76.32 76.24 76.57 76.65 76.68 76.07 76.26
77.40 74.59 69.59 65.58 61.47 55.87 56.45 62.35 64.73 66.77 68.01 67.25 66.01 68.24 67.56 66.95 70.35 71.74 74.16 74.87 74.15 74.10 75.64 77.18 77.47 77.82 77.88 76.99 76.60 76.89 77.01 77.01 76.90 76.82 76.75 76.29 76.15 76.15 75.88 76.07 75.79 75.85 76.06 76.13 76.49 76.21 75.96 75.88 76.07
74.36 73.49 70.64 61.44 57.87 59.74 61.37 63.06 66.59 66.13 67.56 68.28 66.91 65.30 69.87 72.16 71.50 72.88 75.05 75.19 74.88 75.50 76.24 77.41 77.31 77.53 77.65 76.50 76.71 76.26 76.28 75.85 75.73 76.53 76.55 76.31 76.69 76.69 76.37 76.45 76.40 76.39 75.57 76.15 76.12 75.60 76.04 75.68 75.74
75.08 71.50 62.44 59.53 59.09 61.67 64.03 65.95 66.42 63.89 65.42 66.21 66.48 64.66 67.27 71.50 74.38 74.32 74.27 74.90 74.15 74.65 75.87 77.23 77.62 77.55 77.55 77.18 77.71 76.83 76.56 76.78 76.85 75.93 75.87 76.09 75.71 75.68 76.64 75.74 75.40 75.37 76.24 75.98 75.07 74.79 74.91 74.89 74.89
68.18 68.54 59.86 57.05 58.89 62.75 64.52 66.76 66.45 65.56 66.12 65.87 65.34 65.91 68.00 73.28 73.21 73.00 74.38 73.79 74.60 74.31 75.61 76.81 77.55 77.65 77.57 77.16 76.70 76.51 76.29 76.53 76.39 76.14 76.39 76.12 76.22 76.09 75.79 76.29 76.07 76.07 75.57 74.73 74.46 74.21 74.32 74.45 74.63
64.16 63.42 59.54 59.92 59.34 61.19 63.10 67.60 65.28 64.68 65.20 65.22 66.83 63.87 68.18 71.41 73.57 73.45 73.90 74.33 73.85 74.53 75.66 76.22 76.50 77.21 76.97 76.81 76.88 76.37 76.07 76.50 76.15 76.22 76.19 76.30 76.44 75.95 76.21 76.29 76.18 75.43 74.75 74.59 74.26 74.54 74.24 74.29 75.13
66.61 65.30 60.24 60.75 59.23 59.91 65.12 66.26 67.35 65.67 64.38 68.77 68.37 63.19 65.98 70.73 73.84 73.90 74.18 74.47 74.04 74.67 76.10 76.78 76.82 76.74 77.08 77.09 76.03 75.93 76.17 76.22 76.47 75.81 75.97 76.38 76.62 76.10 76.12 76.22 76.07 75.18 74.78 75.04 74.71 73.95 73.59 74.08 74.91
67.98 62.23 57.67 59.72 60.12 61.21 66.45 64.60 67.47 69.12 66.96 67.43 67.48 67.97 70.77 71.96 72.63 71.97 71.73 72.21 73.00 73.89 74.51 75.66 76.32 76.65 76.18 76.59 76.15 75.26 76.03 76.23 75.38 75.16 75.60 76.04 76.26 75.35 74.59 76.34 76.24 75.49 75.38 75.29 75.04 75.09 74.82 74.60 75.35
64.84 61.22 61.28 65.12 65.12 63.06 65.30 64.70 66.23 65.90 65.79 66.01 67.33 70.03 71.78 71.42 71.01 69.51 69.31 71.06 72.14 72.75 74.41 74.26 75.42 75.43 75.57 75.61 76.23 75.47 75.61 75.32 75.00 75.88 76.04 76.84 75.59 76.37 76.07 75.74 75.20 74.98 74.79 75.15 75.43 76.26 75.49 75.34 74.15
64.23 61.09 64.81 65.84 67.06 67.19 64.39 65.42 67.22 64.74 62.50 64.46 66.45 68.68 70.72 70.74 69.84 68.90 69.68 71.06 70.63 73.73 74.41 74.55 75.55 76.12 75.68 75.45 77.71 76.65 75.18 75.29 75.80 76.55 77.10 75.43 74.81 74.39 74.11 75.76 73.98 74.83 75.59 75.56 75.78 74.87 73.83 74.33 73.38
60.88 64.85 65.34 66.42 66.77 66.06 64.53 66.18 64.14 64.61 64.25 68.50 68.66 70.57 70.61 70.27 70.15 69.84 69.58 71.52 71.72 72.91 73.56 74.28 75.23 76.03 75.95 76.40 75.49 74.88 74.49 75.39 73.93 74.40 74.86 76.10 75.25 75.03 76.11 75.77 74.99 76.80 75.67 76.74 75.64 73.72 73.57 73.77 75.26
62.15 63.16 65.34 66.34 66.31 66.45 66.99 65.01 63.85 64.59 68.28 68.66 69.28 70.30 69.89 70.20 69.64 70.49 70.88 70.87 72.29 72.95 73.83 74.21 75.07 76.37 76.40 76.07 77.38 75.75 75.81 73.94 73.61 74.23 76.00 75.61 74.73 75.99 75.90 77.52 76.71 76.28 76.52 76.11 75.37 75.10 72.16 73.19 74.36
62.99 63.71 64.76 66.03 66.11 66.34 64.97 64.20 65.95 65.53 68.34 67.99 68.27 68.72 69.48 70.03 70.81 69.87 70.27 70.36 71.83 73.10 73.44 74.16 74.57 76.15 75.64 76.44 76.36 76.46 75.19 73.89 74.32 74.51 75.85 76.72 76.34 76.40 75.49 76.23 76.04 76.89 76.43 76.62 76.74 75.88 75.01 74.52 75.05
62.60 61.28 63.88 65.49 65.26 64.60 66.04 62.25 63.77 66.19 67.51 66.67 67.31 68.13 68.77 69.41 70.18 70.06 70.64 70.74 72.30 73.07 73.98 73.97 74.65 75.05 75.84 75.44 75.15 75.26 75.19 72.07 74.07 74.64 76.84 76.39 77.25 77.35 79.30 76.31 77.91 75.75 77.67 77.69 77.09 76.46 76.39 74.78 74.36
60.89 61.26 58.34 63.82 64.69 65.61 65.03 58.69 65.02 67.03 66.97 64.95 66.24 67.30 68.16 68.86 69.94 70.84 70.75 71.53 72.42 73.00 72.93 73.72 74.10 74.10 74.72 75.45 74.41 72.64 74.55 72.52 74.97 73.94 75.00 76.84 77.49 78.50 77.99 76.12 76.16 76.95 77.90 77.08 76.17 76.64 75.12 75.24 74.00
59.45 54.99 55.65 58.39 65.14 64.33 64.20 59.69 65.20 66.74 66.03 64.67 65.67 66.55 67.43 68.35 69.61 71.01 71.39 71.74 72.18 73.18 72.87 73.12 74.20 72.99 73.85 74.60 74.90 74.32 73.17 72.96 74.95 75.01 74.76 77.19 77.21 77.65 77.61 76.40 75.92 78.31 75.98 75.64 76.66 75.46 76.02 73.98 74.65
53.38 53.85 56.38 56.29 62.31 63.38 61.22 61.25 64.91 66.44 65.94 64.80 64.93 65.92 67.43 68.59 68.47 71.66 71.65 72.01 72.20 72.83 72.94 74.12 73.91 74.71 75.27 74.06 76.12 74.06 73.34 73.72 75.07 74.87 75.24 78.18 76.86 77.46 77.37 76.42 77.49 77.53 75.23 74.46 76.16 76.02 75.49 75.24 74.76
56.79 56.05 55.36 58.86 62.67 61.99 61.92 61.92 62.69 66.18 66.62 64.93 64.99 65.67 65.91 67.72 69.15 70.68 72.34 72.70 72.11 72.07 73.03 73.72 73.80 75.92 74.32 73.11 72.28 72.56 71.67 72.71 73.94 74.26 76.90 77.29 77.04 76.87 78.21 76.18 77.16 76.50 75.96 78.07 76.71 76.08 76.21 73.57 75.62
56.50 56.07 55.93 59.78 62.20 62.41 61.87 61.76 64.34 65.59 66.09 66.58 66.07 65.70 65.70 66.72 70.07 70.64 71.84 72.57 72.53 73.02 73.45 73.52 74.49 75.76 74.66 74.01 73.96 74.54 74.87 73.64 74.52 74.56 76.70 77.05 77.33 77.16 77.08 78.03 76.33 77.65 75.02 76.65 76.35 76.43 74.86 74.28 75.16
56.63 55.54 56.00 56.15 60.04 62.15 62.19 59.82 61.09 64.68 66.25 67.06 67.51 68.03 67.64 67.70 69.01 69.77 70.27 72.06 72.71 72.84 73.58 74.31 75.13 75.54 75.26 75.86 73.91 74.41 76.46 75.92 77.38 74.31 75.53 76.22 77.36 77.66 77.99 77.74 77.97 78.63 76.78 75.00 77.01 76.82 76.46 72.97 74.56
53.08 57.81 56.89 57.01 56.11 52.75 59.46 51.31 52.50 62.48 63.68 65.61 66.58 67.35 67.63 67.92 69.02 70.86 70.65 71.75 72.42 72.58 74.14 74.83 75.77 75.47 75.74 75.38 75.76 75.84 73.47 71.75 73.61 74.72 75.80 77.63 77.27 77.43 77.68 78.00 78.02 77.87 76.82 77.55 76.67 76.37 77.42 76.34 71.84
54.34 57.87 57.55 56.92 55.66 56.91 54.73 53.22 57.97 61.17 60.82 63.64 65.88 67.19 67.86 68.15 68.76 70.03 70.41 71.87 72.62 73.12 73.24 74.49 74.96 75.34 77.15 75.80 77.05 74.54 74.76 73.66 74.36 74.21 76.28 76.89 77.29 77.32 77.10 78.21 79.26 77.30 76.23 77.42 77.44 77.11 77.41 77.10 74.16
57.40 57.99 58.31 57.63 55.81 50.96 51.15 52.19 54.82 53.67 59.11 62.33 64.56 66.80 68.07 67.82 69.23 69.73 70.85 72.03 72.48 73.25 73.02 73.78 75.04 75.51 76.10 75.34 75.01 76.52 76.25 74.97 74.12 74.29 73.37 74.59 74.82 75.76 77.47 77.39 78.15 77.99 77.67 77.20 76.84 77.92 77.60 77.30 76.96
56.74 55.11 49.19 49.04 50.22 46.45 55.68 53.01 55.28 59.34 61.31 62.81 64.05 65.97 68.04 68.86 68.88 69.48 70.06 70.98 72.32 72.57 72.61 72.90 74.49 75.24 75.18 75.22 75.64 75.30 75.29 74.87 75.45 75.35 74.16 75.54 73.81 73.78 76.32 78.74 77.51 76.95 78.13 77.74 77.79 79.06 78.15 77.36 76.29
56.11 54.32 49.44 45.69 46.12 49.69 55.44 51.44 54.60 61.50 62.55 64.73 65.67 67.16 68.39 68.56 69.20 69.38 70.70 71.30 72.02 72.58 73.26 72.68 73.89 74.47 75.04 74.87 75.23 76.95 75.94 73.46 73.96 75.07 74.32 73.72 73.65 76.07 78.50 78.98 77.54 77.80 77.93 77.21 77.80 76.42 76.51 78.60 76.69
54.49 52.85 55.79 51.21 51.63 48.69 52.26 55.34 60.04 61.50 61.96 63.40 64.14 66.58 67.32 68.45 69.15 69.56 70.90 71.71 72.52 72.84 73.03 73.24 73.72 74.65 75.07 74.79 75.92 76.00 75.74 74.89 75.14 78.06 76.02 74.21 76.12 75.06 76.95 77.32 77.90 77.64 77.86 77.51 77.67 76.09 76.66 76.75 77.18
55.32 56.63 51.21 51.60 45.26 45.09 49.74 52.53 54.33 55.43 60.90 62.70 63.58 65.25 67.27 68.33 69.07 69.97 71.11 71.98 72.71 73.25 73.67 74.09 74.09 74.32 75.01 74.92 75.11 75.08 75.62 75.07 74.88 75.49 75.82 76.28 76.14 76.36 76.74 77.09 76.62 77.65 77.13 78.00 78.81 77.44 78.54 77.17 76.04
53.59 52.36 52.99 52.86 51.09 47.28 46.53 49.83 58.37 60.55 62.26 62.30 64.04 65.30 67.10 67.97 68.99 70.01 71.26 72.48 72.98 73.16 73.88 74.05 74.09 74.05 74.44 74.99 75.61 75.76 75.45 75.26 75.29 73.97 75.11 76.41 76.60 77.14 76.17 77.45 76.98 76.94 76.54 78.10 78.98 78.58 77.39 76.51 76.99
55.41 54.75 54.13 49.59 49.61 51.11 50.10 50.68 58.80 60.55 62.56 63.79 64.15 65.68 66.82 68.24 69.01 70.34 71.18 72.33 72.32 73.29 73.90 74.28 74.60 74.46 74.41 74.97 76.02 75.09 75.90 76.24 75.20 75.04 74.91 75.92 76.91 77.24 77.39 77.42 77.13 77.22 76.92 77.94 77.16 76.05 76.91 76.63 75.94
MSLP
1009.25 1008.35 1007.25 1006.95 1006.33 1004.46 1004.15 1003.74 1003.16 1003.05 1003.16 1003.57 1004.21 1004.03 1005.00 1006.05 1006.19 1007.85 1009.42 1010.62 1010.85 1011.55 1012.86 1013.32 1014.09 1014.40 1014.68 1014.79 1014.90 1015.10 1015.16 1015.32 1015.51 1015.65 1015.72 1015.78 1015.94 1015.97 1016.12 1016.24 1016.28 1016.41 1016.57 1016.66 1016.71 1016.84 1016.92 1017.02 1017.10
1007.39 1007.32 1007.04 1005.88 1005.53 1004.81 1005.29 1003.99 1004.33 1003.89 1003.94 1004.18 1004.63 1004.58 1004.86 1006.41 1007.30 1008.11 1009.85 1011.42 1011.20 1011.55 1012.18 1013.17 1014.33 1014.53 1014.79 1014.86 1015.12 1015.25 1015.36 1015.53 1015.69 1015.78 1015.87 1015.95 1016.11 1016.10 1016.25 1016.37 1016.39 1016.48 1016.66 1016.75 1016.80 1016.91 1017.02 1017.14 1017.28
1008.11 1007.66 1006.25 1005.34 1005.00 1005.72 1006.02 1004.95 1004.18 1004.40 1004.58 1004.18 1004.64 1004.89 1005.44 1006.83 1007.99 1008.37 1009.50 1010.78 1011.64 1011.88 1011.74 1013.47 1014.32 1014.65 1014.81 1014.99 1015.19 1015.38 1015.46 1015.68 1015.83 1015.93 1015.99 1016.16 1016.23 1016.28 1016.39 1016.49 1016.55 1016.60 1016.75 1016.84 1016.94 1017.13 1017.22 1017.32 1017.41
1007.32 1006.70 1006.19 1005.73 1005.48 1005.93 1005.94 1005.55 1004.88 1004.85 1004.90 1004.96 1004.66 1005.44 1007.22 1007.82 1007.83 1009.04 1009.81 1010.62 1011.38 1011.83 1012.25 1013.82 1014.51 1014.82 1014.98 1015.24 1015.33 1015.44 1015.59 1015.78 1015.94 1016.06 1016.18 1016.24 1016.38 1016.50 1016.55 1016.60 1016.64 1016.73 1016.84 1016.91 1017.09 1017.23 1017.31 1017.38 1017.48
1006.87 1005.45 1005.34 1005.42 1005.82 1005.93 1005.93 1005.07 1004.82 1004.76 1004.70 1004.64 1004.76 1005.46 1007.38 1008.36 1008.27 1009.07 1009.73 1010.13 1011.00 1011.63 1012.59 1013.79 1014.56 1014.97 1015.19 1015.35 1015.52 1015.59 1015.79 1015.95 1016.05 1016.15 1016.29 1016.35 1016.48 1016.63 1016.64 1016.74 1016.78 1016.84 1016.92 1017.07 1017.20 1017.28 1017.36 1017.36 1017.46
1004.92 1004.70 1004.81 1004.77 1005.54 1005.76 1005.85 1005.36 1005.05 1004.98 1004.83 1005.10 1004.76 1005.65 1007.64 1008.56 1008.91 1009.57 1009.51 1010.46 1010.46 1011.12 1011.62 1013.82 1014.72 1015.00 1015.24 1015.44 1015.65 1015.74 1015.87 1016.04 1016.22 1016.29 1016.40 1016.46 1016.59 1016.74 1016.78 1016.82 1016.91 1016.94 1017.01 1017.18 1017.35 1017.34 1017.45 1017.51 1017.53
1004.84 1004.55 1004.06 1004.55 1005.07 1005.39 1005.56 1005.45 1005.54 1005.96 1005.34 1004.61 1004.99 1005.97 1007.78 1008.29 1009.37 1009.80 1009.78 1010.33 1011.11 1010.95 1012.06 1013.27 1014.13 1014.87 1015.28 1015.49 1015.65 1015.86 1015.96 1016.16 1016.33 1016.43 1016.48 1016.58 1016.74 1016.84 1016.84 1016.89 1016.99 1016.99 1017.03 1017.18 1017.32 1017.34 1017.48 1017.51 1017.48
1005.06 1004.88 1003.92 1004.81 1005.05 1005.88 1005.65 1005.94 1006.31 1006.48 1006.39 1005.18 1005.06 1005.66 1006.73 1008.01 1008.69 1009.74 1009.71 1010.49 1011.09 1011.29 1012.45 1013.60 1014.17 1014.72 1014.73 1015.15 1015.77 1015.93 1016.06 1016.28 1016.45 1016.46 1016.63 1016.74 1016.77 1016.84 1016.82 1016.93 1016.96 1017.01 1017.04 1017.15 1017.30 1017.33 1017.39 1017.34 1017.10
1005.00 1004.52 1005.13 1005.15 1005.61 1006.08 1006.15 1006.11 1006.50 1006.62 1005.67 1005.33 1005.70 1005.41 1006.55 1008.27 1008.65 1009.03 1009.60 1010.03 1011.21 1012.19 1012.93 1013.17 1013.37 1014.11 1014.62 1014.79 1015.59 1016.00 1016.17 1016.41 1016.52 1016.51 1016.71 1016.57 1015.83 1016.06 1016.32 1016.69 1016.84 1016.98 1017.09 1017.23 1017.23 1017.12 1017.07 1016.88 1016.98
1004.37 1004.50 1005.13 1005.52 1005.79 1006.07 1006.07 1006.97 1006.19 1006.33 1005.88 1005.89 1006.06 1006.43 1007.38 1008.45 1008.75 1009.20 1009.65 1010.56 1011.75 1012.59 1012.66 1012.99 1012.82 1013.49 1014.53 1014.87 1015.56 1015.71 1015.74 1015.94 1016.31 1016.62 1016.23 1015.81 1015.08 1015.26 1015.51 1016.34 1016.84 1016.90 1017.06 1017.15 1017.18 1017.06 1016.88 1016.89 1016.70
1004.70 1004.86 1005.46 1005.57 1006.38 1006.15 1006.08 1006.19 1006.57 1006.47 1006.83 1007.01 1005.28 1006.58 1007.65 1008.35 1009.07 1009.90 1010.34 1010.61 1011.03 1011.74 1012.44 1013.14 1013.51 1013.72 1014.01 1015.29 1015.48 1015.92 1015.42 1015.74 1016.02 1016.52 1015.91 1015.04 1015.33 1015.46 1015.37 1015.42 1016.05 1016.22 1016.72 1016.99 1017.01 1017.18 1016.93 1016.68 1016.73
1004.76 1004.87 1005.52 1005.79 1006.49 1006.32 1006.15 1007.24 1006.91 1007.63 1008.60 1006.01 1005.44 1006.55 1007.45 1008.07 1009.37 1010.00 1010.18 1010.51 1011.50 1012.13 1012.48 1013.04 1013.49 1014.03 1014.51 1015.36 1015.54 1015.18 1015.26 1015.20 1015.59 1016.19 1016.22 1015.39 1015.18 1015.24 1014.89 1015.03 1015.91 1015.81 1016.58 1016.42 1016.48 1016.93 1017.11 1016.37 1015.92
1004.27 1004.60 1005.07 1005.95 1006.46 1006.35 1006.32 1006.68 1007.03 1006.94 1006.17 1006.09 1006.32 1006.85 1007.31 1007.79 1009.51 1010.02 1009.99 1010.49 1011.63 1012.28 1012.92 1012.79 1013.90 1014.29 1014.96 1015.31 1015.40 1015.37 1014.83 1015.12 1014.64 1015.62 1015.37 1014.95 1014.89 1015.18 1015.16 1015.27 1015.23 1015.44 1015.72 1015.91 1016.23 1016.47 1017.13 1016.69 1016.18
1004.79 1004.58 1004.91 1005.48 1005.57 1006.12 1006.35 1006.73 1006.55 1006.90 1006.08 1006.34 1006.72 1006.77 1007.04 1007.28 1008.62 1009.66 1010.19 1010.83 1011.32 1012.03 1012.85 1013.04 1013.66 1014.29 1014.81 1015.29 1015.49 1015.48 1015.22 1014.86 1014.51 1014.39 1015.02 1015.59 1015.09 1015.04 1015.34 1015.17 1015.11 1015.09 1015.32 1015.38 1015.66 1016.05 1016.73 1016.63 1016.11
1004.66 1004.27 1003.95 1004.59 1005.26 1005.79 1006.27 1006.61 1006.20 1006.79 1006.16 1006.17 1006.35 1006.56 1006.83 1007.14 1007.65 1008.66 1009.70 1010.41 1010.82 1011.68 1012.23 1013.06 1013.37 1013.97 1014.73 1015.06 1015.11 1015.26 1015.25 1015.49 1014.45 1014.57 1015.14 1015.51 1015.56 1015.30 1015.62 1015.07 1015.09 1015.10 1015.24 1015.77 1015.93 1016.29 1016.37 1016.48 1016.27
1004.07 1003.84 1003.23 1003.95 1004.81 1005.37 1005.97 1005.69 1005.67 1006.31 1006.44 1006.01 1005.86 1006.17 1006.67 1007.25 1007.72 1008.60 1009.50 1010.37 1010.94 1011.27 1012.18 1012.92 1012.81 1013.65 1014.40 1014.71 1014.97 1015.21 1015.50 1015.74 1014.30 1014.52 1014.53 1015.46 1015.50 1015.59 1015.39 1015.05 1015.04 1015.06 1015.30 1015.03 1015.74 1015.73 1016.05 1016.05 1015.88
1002.85 1002.34 1003.30 1003.43 1004.18 1004.61 1005.25 1005.03 1005.27 1006.23 1005.91 1005.70 1005.47 1005.64 1006.41 1007.29 1007.80 1008.05 1008.96 1009.87 1010.39 1011.11 1012.26 1012.72 1013.03 1013.48 1014.08 1014.62 1014.64 1015.11 1015.94 1015.57 1014.12 1014.19 1014.13 1015.03 1015.28 1015.38 1015.44 1014.54 1015.10 1014.81 1015.12 1015.21 1015.43 1015.82 1015.61 1015.78 1015.63
1002.68 1002.38 1003.20 1003.44 1003.73 1004.26 1004.54 1004.34 1004.94 1005.42 1005.10 1004.90 1005.01 1005.22 1005.84 1006.39 1007.19 1007.86 1008.45 1009.15 1010.32 1010.90 1011.97 1012.45 1013.02 1013.30 1013.89 1014.61 1014.74 1014.52 1014.92 1014.53 1013.97 1014.02 1014.10 1014.81 1015.04 1015.05 1015.31 1014.30 1014.21 1014.99 1014.94 1015.41 1015.59 1015.81 1015.53 1015.26 1015.43
1003.09 1002.78 1002.67 1003.41 1003.36 1003.68 1003.40 1003.26 1003.50 1003.86 1004.15 1004.30 1004.48 1004.36 1004.96 1005.47 1006.72 1007.30 1007.64 1008.52 1009.46 1010.59 1011.43 1012.20 1012.97 1013.42 1013.68 1014.44 1014.30 1014.49 1014.16 1014.23 1014.02 1014.01 1014.31 1014.60 1015.11 1015.02 1015.25 1014.73 1014.75 1015.18 1015.12 1015.18 1015.72 1015.64 1015.68 1014.91 1014.80
1002.45 1002.19 1002.09 1003.17 1003.18 1003.37 1002.80 1002.52 1002.25 1002.27 1002.98 1003.25 1003.65 1004.07 1004.19 1004.75 1005.85 1006.64 1007.14 1007.80 1008.61 1009.63 1010.85 1011.84 1012.62 1013.44 1013.60 1013.59 1013.74 1014.06 1014.13 1014.06 1014.40 1014.03 1014.21 1014.73 1014.69 1015.07 1015.17 1015.20 1014.97 1015.00 1015.07 1015.20 1015.60 1015.66 1015.79 1014.52 1014.71
1001.38 1001.19 1001.40 1001.98 1002.25 1002.75 1002.91 1002.11 1001.64 1001.41 1001.77 1002.39 1002.74 1003.12 1003.34 1004.05 1004.73 1005.73 1006.92 1007.35 1008.14 1009.04 1010.03 1011.11 1012.19 1013.26 1013.44 1013.23 1013.75 1013.93 1014.15 1014.37 1014.69 1014.39 1014.17 1014.37 1014.78 1014.56 1015.26 1015.19 1015.40 1015.25 1015.55 1014.87 1015.39 1015.43 1015.54 1014.80 1014.47
1000.53 1001.38 1001.45 1001.49 1002.13 1002.66 1003.66 1003.06 1002.83 1000.42 1000.82 1001.20 1001.83 1002.23 1002.53 1003.22 1003.88 1005.02 1006.27 1006.74 1007.66 1008.49 1009.62 1010.41 1011.60 1012.70 1013.18 1013.35 1013.37 1013.90 1013.85 1013.78 1014.25 1014.43 1014.29 1014.37 1014.26 1014.44 1014.71 1015.06 1015.14 1015.24 1015.09 1015.33 1015.02 1015.00 1015.33 1015.32 1014.41
1000.87 1001.39 1001.41 1001.05 1001.10 1001.33 1002.89 1002.95 1001.79 1000.59 999.72 999.98 1000.51 1001.05 1001.90 1002.31 1003.34 1004.14 1005.37 1005.91 1007.00 1008.03 1008.95 1009.88 1011.20 1012.18 1012.76 1013.19 1013.16 1013.40 1013.50 1013.63 1013.91 1014.10 1014.32 1014.54 1014.75 1014.84 1014.72 1014.57 1014.81 1015.03 1015.13 1015.17 1015.35 1015.31 1015.43 1015.14 1014.57
1001.28 1000.99 1000.52 1000.02 1000.43 1001.81 1002.94 1001.88 1000.74 1001.52 999.50 999.33 999.57 1000.04 1000.78 1001.75 1002.28 1003.49 1004.84 1005.59 1006.61 1007.60 1008.56 1009.39 1010.69 1011.91 1012.45 1012.79 1013.31 1013.18 1013.26 1013.37 1013.26 1013.79 1014.26 1014.31 1014.46 1014.68 1014.61 1014.39 1014.66 1014.98 1014.90 1015.20 1015.06 1015.22 1015.33 1015.12 1014.90
1000.84 999.78 999.96 999.04 999.90 1001.78 1000.99 999.99 999.59 998.94 999.07 999.46 999.38 999.67 1000.16 1001.38 1001.97 1003.01 1004.21 1005.20 1006.34 1007.21 1008.28 1009.02 1010.18 1011.36 1012.21 1012.58 1012.90 1013.21 1013.41 1013.57 1013.33 1013.56 1013.63 1013.56 1013.59 1013.60 1013.93 1014.20 1014.54 1014.58 1014.97 1014.78 1014.85 1015.15 1015.20 1015.19 1014.89
999.49 998.89 998.79 998.33 997.90 998.52 999.04 998.98 998.79 998.87 998.84 999.37 999.50 999.69 1000.34 1001.28 1002.09 1002.99 1003.90 1005.10 1006.14 1006.92 1007.94 1008.59 1009.71 1010.67 1011.61 1012.09 1012.72 1013.00 1013.34 1013.41 1013.43 1013.56 1013.06 1012.99 1013.21 1013.23 1013.33 1013.77 1014.19 1014.24 1014.26 1014.35 1014.59 1014.82 1014.83 1014.72 1014.77
998.88 998.76 998.37 997.86 997.32 997.55 997.84 998.96 999.39 998.89 998.79 999.09 999.51 999.92 1000.46 1001.24 1001.97 1002.84 1003.66 1004.68 1005.68 1006.64 1007.67 1008.32 1009.25 1010.23 1010.82 1011.24 1012.12 1012.64 1013.03 1013.27 1012.94 1012.94 1013.34 1013.21 1013.21 1013.23 1013.35 1013.55 1014.24 1014.16 1014.17 1014.37 1014.68 1014.64 1014.36 1014.52 1014.58
999.23 998.70 997.85 997.79 997.38 997.38 998.00 997.84 998.64 998.59 998.48 998.83 999.37 999.81 1000.50 1001.24 1001.98 1002.72 1003.54 1004.52 1005.32 1006.19 1007.28 1008.08 1008.79 1009.68 1010.16 1010.60 1011.23 1011.73 1012.21 1012.78 1012.98 1012.91 1013.01 1013.02 1013.04 1013.27 1013.41 1013.51 1014.11 1014.14 1014.16 1014.33 1014.64 1014.50 1014.08 1014.29 1014.13
998.40 998.49 998.18 997.49 997.14 996.43 996.99 998.55 997.45 997.51 998.06 998.42 998.94 999.48 1000.18 1001.03 1001.84 1002.65 1003.34 1004.38 1005.16 1005.89 1006.76 1007.65 1008.35 1009.02 1009.57 1010.01 1010.44 1011.02 1011.47 1011.93 1012.43 1012.60 1012.72 1013.01 1013.27 1013.36 1013.44 1013.50 1013.68 1013.92 1014.07 1014.03 1014.27 1014.30 1014.06 1014.17 1014.04
997.48 997.07 997.01 996.80 997.22 996.81 996.73 997.89 997.91 997.42 997.53 998.21 998.70 999.28 999.99 1000.53 1001.65 1002.48 1003.15 1004.21 1004.92 1005.64 1006.38 1007.23 1007.96 1008.42 1008.90 1009.28 1009.81 1010.23 1010.77 1011.14 1011.42 1011.95 1012.13 1012.31 1012.70 1013.00 1013.21 1013.31 1013.38 1013.45 1013.52 1013.46 1014.02 1013.95 1013.38 1013.79 1013.66
Wind_Speed
11 14 7 6 7 5 2 2 5 10 8 12 6 12 12 12 12 6 18 14 9 16 15 15 11 12 13 13 14 13 13 12 11 10 8 7 6 6 6 6 6 6 7 8 9 8 7 8 8
13 3 5 6 6 1 5 5 12 11 10 12 8 6 10 16 12 15 15 13 14 15 14 15 11 12 14 13 13 13 12 11 10 9 7 7 6 6 6 6 5 6 7 7 9 9 9 8 8
13 5 8 5 7 4 2 8 10 10 5 4 7 6 7 10 6 10 21 20 16 5 13 17 12 11 14 13 13 11 11 10 9 8 7 6 6 6 6 6 6 6 6 7 7 8 8 8 8
4 6 5 6 10 5 4 4 12 10 8 3 1 13 10 9 5 15 20 20 15 11 14 16 13 13 13 12 12 12 11 10 8 7 7 6 7 7 6 6 6 6 5 7 6 7 7 7 8
8 7 5 4 7 3 6 6 2 2 5 8 4 12 11 5 10 17 20 18 17 14 15 15 11 12 12 11 11 10 9 9 8 9 7 6 6 6 7 6 6 5 6 6 6 5 5 6 5
6 5 5 8 3 4 5 2 3 4 3 7 5 11 12 9 15 15 16 15 13 11 18 15 12 12 11 10 10 9 8 8 8 7 7 4 7 5 6 7 5 5 4 3 4 2 2 4 5
5 9 5 7 3 4 2 1 2 7 9 6 1 17 10 13 17 10 16 10 8 10 18 11 13 11 10 8 9 8 8 9 9 9 8 7 7 5 6 5 6 5 2 2 2 1 3 2 5
7 8 5 5 6 2 4 3 1 4 11 9 6 4 15 14 18 18 17 19 15 8 12 7 9 9 10 12 9 9 9 10 10 8 7 8 8 7 7 7 7 3 2 1 1 2 2 2 6
7 7 6 9 9 0 3 6 4 4 7 3 4 8 19 19 15 15 12 12 10 4 8 14 13 11 7 8 10 9 10 10 11 8 7 10 10 10 10 10 7 3 1 2 3 4 6 8 8
9 5 8 6 9 5 6 6 9 8 7 7 8 7 18 18 16 14 12 14 13 11 9 5 11 8 10 6 10 9 9 8 8 6 8 10 1 6 9 8 6 3 3 4 4 7 10 10 4
8 7 10 8 7 9 5 4 2 4 6 7 13 13 17 16 14 12 13 12 10 16 7 8 3 7 8 9 6 2 5 5 7 4 6 3 5 5 7 7 7 6 8 3 4 1 3 6 4
6 2 4 6 3 4 3 7 4 7 3 13 10 15 17 16 14 13 12 16 8 7 9 10 4 7 5 5 6 9 6 6 5 7 8 4 6 3 4 4 4 1 5 4 5 4 3 8 10
3 11 4 2 1 4 2 3 1 5 10 9 11 14 15 16 15 15 8 13 11 11 6 12 10 7 6 6 3 1 4 6 7 8 8 1 4 4 2 2 3 5 3 5 3 4 2 6 7
10 11 1 2 3 4 7 5 10 15 6 10 11 13 13 14 22 11 8 10 13 11 8 10 10 10 8 5 4 4 5 2 4 6 8 3 6 2 4 4 3 2 2 1 1 2 3 4 6
9 12 5 8 4 4 6 8 13 8 7 11 12 11 11 10 10 14 16 12 10 10 12 5 13 10 9 8 7 4 6 5 6 5 7 5 5 3 5 3 2 4 5 1 3 3 4 4 6
9 10 2 10 5 5 10 7 13 3 10 11 13 11 10 8 12 12 9 11 8 10 8 11 9 13 12 8 9 8 3 5 8 5 9 7 5 4 5 7 3 2 1 1 3 1 5 3 3
10 4 7 1 7 5 10 4 11 11 14 14 13 14 12 10 7 8 12 9 9 11 9 10 7 11 12 9 7 7 6 8 5 5 4 9 6 5 8 4 5 4 3 3 1 2 8 6 2
7 11 5 9 8 6 8 8 19 15 20 13 14 13 14 17 12 14 11 13 17 11 12 12 7 8 11 9 5 7 10 8 6 5 4 8 7 6 5 6 2 2 2 6 1 4 5 3 5
8 11 6 10 2 6 9 8 14 17 17 15 15 15 16 17 15 11 12 13 15 13 12 9 8 6 9 9 8 5 7 7 6 5 4 4 5 4 5 9 5 5 6 2 4 4 3 6 2
9 13 1 5 3 7 9 11 12 15 17 17 18 16 13 11 16 14 14 13 12 15 15 11 11 11 11 9 8 6 3 6 4 6 8 6 5 5 6 7 3 4 7 3 4 3 4 5 1
12 14 6 1 5 10 13 11 11 15 15 17 16 19 18 17 18 16 11 14 13 14 14 15 14 14 12 10 8 6 4 2 5 6 5 8 9 7 7 5 5 4 3 2 4 5 6 3 4
13 7 5 5 11 4 27 2 16 12 15 19 19 18 19 17 15 17 18 16 15 13 14 14 15 16 13 11 10 8 8 8 6 8 6 1 6 8 8 6 7 3 6 5 5 7 5 4 5
8 2 10 7 12 8 9 7 7 15 13 15 15 21 19 19 18 18 17 17 15 13 14 14 12 14 13 13 10 10 10 7 8 5 2 4 2 5 8 6 4 5 7 2 3 3 4 5 6
9 12 17 17 9 6 5 15 11 9 5 1 5 13 20 18 20 16 15 16 14 14 12 14 16 13 13 14 13 11 10 9 4 9 6 5 8 7 9 9 7 5 6 6 6 5 6 6 6
10 19 8 7 10 5 17 11 3 2 3 3 4 8 14 19 15 16 18 15 14 14 13 13 15 14 15 15 14 13 11 10 7 7 9 6 4 5 9 9 5 7 6 6 6 5 5 6 5
13 14 6 12 10 3 13 6 6 6 3 5 1 8 13 16 15 15 16 15 15 15 14 13 15 15 16 16 13 12 12 9 9 10 9 8 7 3 3 7 6 9 8 6 6 6 7 8 7
16 7 14 14 12 8 7 9 7 4 5 5 8 11 13 15 16 16 17 15 16 15 14 13 14 14 16 16 13 11 11 12 10 9 9 8 5 6 5 4 5 7 7 7 6 8 6 5 7
14 15 12 9 4 10 4 9 6 12 8 9 10 13 14 15 16 15 14 13 13 15 14 14 13 14 14 15 14 14 14 13 12 9 9 8 7 8 6 4 8 7 8 8 6 7 7 6 6
10 13 12 17 12 8 7 6 5 9 10 8 10 12 15 16 14 14 13 13 15 14 15 14 14 15 14 15 14 14 14 15 14 13 12 10 10 8 8 9 9 7 8 7 7 9 8 7 8
7 15 12 7 11 9 10 7 14 9 9 9 9 12 13 15 16 14 12 14 13 13 14 14 13 14 14 13 13 15 14 14 15 14 13 12 11 11 10 10 11 11 11 9 10 11 11 10 10
Wind_Direction
196 217 243 248 254 212 162 29 162 94 76 74 70 49 70 47 25 87 122 122 124 103 126 132 131 122 121 117 117 118 116 118 122 126 124 110 106 105 102 91 87 82 96 106 107 106 96 97 100
266 276 234 264 254 85 349 128 67 69 74 90 97 151 85 68 66 120 125 131 153 137 147 133 131 139 125 119 120 122 120 125 122 121 118 114 113 107 101 96 96 99 99 103 103 106 107 107 106
264 306 269 296 312 62 263 81 83 91 124 142 106 25 23 78 104 128 118 148 134 172 130 117 132 129 124 127 125 128 123 123 128 128 123 125 118 113 111 107 112 109 108 101 97 98 104 106 103
266 197 263 270 30 342 80 203 108 135 119 36 108 97 101 64 102 120 138 139 133 162 112 121 137 140 135 135 135 130 127 126 129 128 130 133 130 118 121 128 118 117 114 99 101 97 99 105 108
229 251 218 77 86 192 146 82 77 76 104 121 279 87 81 98 120 138 147 151 152 136 123 130 145 142 143 141 131 128 132 128 130 131 135 135 132 130 131 128 119 127 110 109 105 108 107 114 117
254 252 267 82 106 152 166 120 292 105 92 97 163 124 73 126 120 149 152 142 149 148 133 133 146 152 149 143 131 132 134 134 129 129 133 135 130 134 130 134 129 121 118 117 106 119 109 108 133
310 304 9 342 78 209 165 157 4 54 243 144 92 93 120 154 132 161 140 145 101 169 114 152 155 151 152 147 134 136 136 136 139 130 135 143 135 141 142 134 141 135 150 138 126 55 39 100 149
290 274 294 24 9 29 193 148 307 86 287 78 294 149 156 145 150 177 149 159 156 160 123 124 152 172 168 153 145 143 138 135 135 130 142 157 159 164 162 174 155 158 190 171 96 335 289 179 186
261 275 345 20 11 332 122 202 173 265 204 64 77 25 135 144 162 155 160 131 118 101 148 186 154 177 101 142 135 146 145 144 149 151 173 195 209 175 165 96 127 151 186 303 314 288 272 259 227
287 30 346 7 321 354 185 146 161 202 151 140 119 105 124 157 166 163 165 149 160 171 198 237 156 160 133 141 147 167 160 167 151 187 200 231 329 42 48 110 143 201 225 248 262 275 274 257 292
355 358 350 358 0 303 264 143 231 210 210 264 144 148 151 164 152 171 160 173 186 162 153 120 182 110 157 130 131 176 156 210 137 202 254 256 169 161 218 151 170 193 200 206 203 230 294 278 212
282 10 336 359 354 261 153 188 238 91 233 260 106 149 161 165 160 186 188 169 151 136 184 153 172 132 142 134 168 196 175 208 158 171 234 163 241 108 298 54 131 139 164 187 237 132 292 299 321
330 339 8 26 137 248 266 158 287 283 168 95 122 150 169 158 165 190 196 145 169 165 196 151 129 160 171 176 222 255 206 166 178 165 210 241 273 131 173 46 312 154 188 149 213 134 177 295 294
348 306 67 217 145 226 229 202 208 161 165 126 146 160 169 174 161 179 146 159 175 176 192 145 173 160 164 158 166 214 245 167 190 184 131 254 308 83 232 189 248 203 160 267 206 219 173 292 292
295 289 215 202 200 216 202 238 225 257 174 157 159 171 165 172 162 169 167 178 187 184 178 159 154 161 167 179 168 190 261 169 228 159 114 215 244 144 291 187 235 241 110 166 210 180 243 225 282
263 251 245 181 174 177 234 303 199 161 160 196 172 170 169 162 171 156 168 163 183 162 184 155 187 163 154 177 166 197 154 222 233 179 173 186 218 282 224 253 25 61 148 298 162 205 215 266 221
187 299 347 76 176 200 206 232 150 182 197 211 195 169 163 168 192 167 160 177 157 159 187 155 212 169 148 164 191 134 188 237 209 217 216 153 206 211 268 255 216 92 252 173 316 165 273 193 276
343 315 330 297 160 199 234 198 205 184 208 197 199 182 166 192 183 178 186 162 167 159 177 154 202 142 160 162 217 190 174 228 222 201 200 142 229 201 248 258 191 317 148 241 11 329 304 319 222
298 295 319 301 108 266 247 255 172 180 211 194 217 195 197 168 187 187 185 173 161 162 168 173 180 155 174 167 192 204 199 216 208 233 139 150 251 217 198 273 159 224 268 37 317 258 284 296 118
256 260 108 192 209 232 254 247 225 199 200 215 200 216 210 179 160 181 191 184 186 172 171 170 179 177 194 192 196 193 192 190 272 227 168 233 206 220 232 260 331 267 309 170 257 269 286 252 247
237 281 162 258 252 235 287 262 270 211 198 199 218 209 213 181 187 191 201 190 191 179 186 171 172 190 198 196 200 193 206 190 190 219 216 198 226 224 230 186 287 331 291 261 212 223 247 321 247
275 295 280 260 271 109 257 229 297 178 197 198 203 214 215 199 209 164 203 189 188 180 185 187 175 179 199 202 187 170 211 206 199 222 190 15 230 208 186 216 224 215 293 358 249 212 280 255 298
308 268 288 260 266 257 357 330 229 256 191 183 210 199 216 195 210 181 205 176 186 182 179 187 170 174 202 187 234 183 233 184 186 226 139 233 188 250 262 215 233 218 239 87 272 265 233 266 284
301 252 234 234 262 64 259 260 86 198 9 324 182 205 194 219 189 189 197 167 182 175 184 181 173 182 190 190 212 213 192 255 194 185 195 227 203 208 211 244 208 224 251 230 255 232 231 262 319
238 254 238 254 210 222 221 229 107 5 41 342 279 184 190 187 186 182 174 174 181 172 185 181 180 181 195 199 197 208 218 222 249 208 198 209 255 211 158 195 219 230 222 258 274 203 268 225 257
218 281 297 293 324 147 189 196 75 18 89 97 134 154 165 178 175 182 169 174 184 180 184 187 176 188 194 197 203 196 202 219 225 204 253 211 222 238 101 162 218 220 248 223 226 238 230 211 214
256 222 286 299 263 236 125 77 37 119 98 132 134 151 165 176 169 183 173 182 182 182 183 189 175 192 197 196 194 194 197 227 220 235 204 247 264 278 210 138 241 241 238 231 235 243 215 255 223
263 294 286 212 256 247 73 286 112 294 145 126 147 161 164 174 175 179 172 183 184 181 179 191 181 188 195 201 196 204 205 209 228 235 229 240 248 230 265 218 208 243 237 231 232 257 237 229 252
180 227 240 279 300 312 238 72 39 107 134 149 155 156 163 170 179 178 175 181 182 184 183 188 186 183 195 199 195 205 208 209 213 222 223 224 231 244 245 242 232 237 231 236 237 247 270 246 236
296 280 212 222 218 261 302 157 247 129 130 147 146 153 163 168 172 178 178 176 181 186 186 190 194 193 197 194 199 199 207 213 211 217 226 220 223 225 226 240 227 223 236 225 216 241 260 215 236